Terminal Aerodrome Forecast
Issued by NWS Sterling, VA

Current Version | Previous Version | Text Only | Print | Product List | Glossary Off
Versions: 1 2 3 4 5 6 7 8 9 10 11 12 13 14 15 16 17 18 19 20

000
FTUS41 KLWX 272345
TAFMRB
TAF
KMRB 272345Z 2800/2824 03006KT P6SM OVC007
     FM280200 12008KT 3SM -SHRA BR OVC025
     FM280600 28006KT 3SM BR BKN040
     FM280900 28006KT P6SM SCT250
     FM281500 25009KT P6SM BKN045
     FM281700 26013G27KT P6SM BKN050
     FM282300 28014KT P6SM SCT060=

USA.gov is the U.S. government's official web portal to all federal, state and local government web resources and services.